DW8016 Weather Reports


time (UTC)temp
C
wind
direction
speed
KPH
gust
KPH
rain 1hr
cm
rain 24hr
cm
rain mn
cm
humidity
%
barometer
mb
20230208171140 16 298 4.8 19.3 0.00 0.00 0.00 51 1023.0
20230208170140 16 298 6.4 20.9 0.00 0.00 0.00 50 1023.2
20230208165108 16 300 8.0 20.9 0.00 0.00 0.00 49 1023.4
20230208164035 17 346 6.4 17.7 0.00 0.00 0.00 50 1023.2
20230208163001 17 344 8.0 14.5 0.00 0.00 0.00 49 1023.3
20230208161925 17 301 4.8 12.9 0.00 0.00 0.00 52 1023.4
20230208160919 17 328 1.6 14.5 0.00 0.00 0.00 54 1023.3
20230208155931 17 286 6.4 14.5 0.00 0.00 0.00 55 1023.3
20230208153748 16 346 4.8 9.7 0.00 0.00 0.00 56 1023.2
20230208152718 16 319 1.6 9.7 0.00 0.00 0.00 60 1023.3
20230208151718 15 322 3.2 9.7 0.00 0.00 0.00 61 1023.2
20230208145514 13 315 1.6 9.7 0.00 0.00 0.00 66 1022.9
20230208144505 12 324 0.0 6.4 0.00 0.00 0.00 66 1023.0
20230208143459 12 330 0.0 3.2 0.00 0.00 0.00 66 1022.9
20230208142438 11 219 0.0 3.2 0.00 0.00 0.00 68 1022.9
20230208141433 10 192 0.0 0.0 0.00 0.00 0.00 70 1023.0
20230208140452 9 192 0.0 0.0 0.00 0.00 0.00 74 1022.7
20230208135500 8 192 0.0 0.0 0.00 0.00 0.00 76 1022.6
20230208133315 7 192 0.0 0.0 0.00 0.00 0.00 80 1022.3
20230208132328 7 192 0.0 1.6 0.00 0.00 0.00 81 1022.2
20230208130227 6 192 0.0 0.0 0.00 0.00 0.00 81 1021.8
20230208124054 6 192 0.0 0.0 0.00 0.00 0.00 82 1021.6
20230208123104 6 192 0.0 0.0 0.00 0.00 0.00 82 1021.2
20230208122035 6 192 0.0 1.6 0.00 0.00 0.00 82 1021.5
20230208121033 6 192 0.0 0.0 0.00 0.00 0.00 81 1021.3
20230208115957 6 192 0.0 0.0 0.00 0.00 0.00 81 1021.1
20230208113836 6 192 1.6 3.2 0.00 0.00 0.00 80 1021.1
20230208112826 6 192 0.0 0.0 0.00 0.00 0.00 79 1020.5
20230208111840 6 192 0.0 0.0 0.00 0.00 0.00 79 1020.5
20230208105659 7 192 0.0 0.0 0.00 0.00 0.00 79 1020.3
20230208104647 7 192 0.0 0.0 0.00 0.00 0.00 78 1019.9
20230208103630 7 192 0.0 0.0 0.00 0.00 0.00 78 1020.0
20230208102620 7 192 0.0 0.0 0.00 0.00 0.00 77 1019.7
20230208100404 7 192 0.0 0.0 0.00 0.00 0.00 76 1019.7
20230208095349 7 192 0.0 0.0 0.00 0.00 0.00 76 1019.5
20230208094333 7 192 0.0 0.0 0.00 0.00 0.00 76 1019.0
20230208093347 7 192 0.0 0.0 0.00 0.00 0.00 75 1019.0
20230208092329 7 192 0.0 0.0 0.00 0.00 0.00 75 1018.9
20230208090213 7 192 0.0 1.6 0.00 0.00 0.00 76 1019.1
20230208084024 7 192 0.0 0.0 0.00 0.00 0.00 75 1018.9
20230208083041 7 192 0.0 0.0 0.00 0.00 0.00 75 1018.7
20230208082031 7 192 0.0 0.0 0.00 0.00 0.00 76 1018.8
20230208081046 7 192 0.0 0.0 0.00 0.00 0.00 76 1018.9
20230208080021 7 192 0.0 0.0 0.00 0.00 0.00 75 1018.7
20230208074956 7 192 0.0 0.0 0.00 0.00 0.00 75 1018.8
20230208074000 7 192 0.0 0.0 0.00 0.00 0.00 75 1019.0
20230208072950 7 192 0.0 0.0 0.00 0.00 0.00 75 1019.1
20230208072001 7 192 0.0 0.0 0.00 0.00 0.00 75 1019.1
20230208070941 7 192 0.0 0.0 0.00 0.00 0.00 75 1019.3
20230208065922 7 192 0.0 0.0 0.00 0.00 0.00 74 1019.5
20230208064911 7 192 0.0 0.0 0.00 0.00 0.00 73 1019.3
20230208063918 7 192 0.0 0.0 0.00 0.00 0.00 73 1019.4
20230208062851 7 192 1.6 3.2 0.00 0.00 0.00 73 1019.5
20230208061817 7 191 0.0 3.2 0.00 0.00 0.00 74 1019.4
20230208060750 7 191 0.0 0.0 0.00 0.00 0.00 73 1019.0
20230208055732 7 191 0.0 0.0 0.00 0.00 0.00 73 1019.1
20230208054704 8 191 0.0 0.0 0.00 0.00 0.00 73 1019.0
20230208053658 8 191 0.0 0.0 0.00 0.00 0.00 72 1019.0
20230208052710 8 191 0.0 0.0 0.00 0.00 0.00 71 1019.2
20230208050529 8 191 0.0 0.0 0.00 0.00 0.00 70 1019.1
20230208045516 8 191 0.0 0.0 0.00 0.00 0.00 68 1019.1
20230208044507 9 191 0.0 1.6 0.00 0.00 0.00 66 1019.3
20230208043433 9 191 0.0 0.0 0.00 0.00 0.00 65 1019.1
20230208042438 9 191 0.0 0.0 0.00 0.00 0.00 65 1019.1
20230208041435 9 191 0.0 0.0 0.00 0.00 0.00 65 1019.1
20230208040453 9 191 1.6 6.4 0.00 0.00 0.00 65 1019.2
20230208034318 9 207 1.6 6.4 0.00 0.00 0.00 66 1019.1
20230208033301 8 207 0.0 8.0 0.00 0.00 0.00 66 1019.4
20230208032252 8 213 0.0 8.0 0.00 0.00 0.00 67 1019.5
20230208031247 8 180 0.0 3.2 0.00 0.00 0.00 67 1019.6
20230208030238 8 175 0.0 4.8 0.00 0.00 0.00 66 1019.7
20230208025210 8 175 0.0 4.8 0.00 0.00 0.00 67 1019.6
20230208024200 8 175 0.0 0.0 0.00 0.00 0.00 66 1020.0
20230208023150 8 175 0.0 0.0 0.00 0.00 0.00 65 1020.0
20230208022132 9 175 1.6 6.4 0.00 0.00 0.00 64 1020.1
20230208021143 9 184 1.6 4.8 0.00 0.00 0.00 64 1020.1
20230208014941 9 184 1.6 8.0 0.00 0.00 0.00 64 1020.0
20230208013943 9 174 3.2 11.3 0.00 0.00 0.00 64 1020.0
20230208012938 8 161 3.2 11.3 0.00 0.00 0.00 65 1019.9
20230208011903 8 178 1.6 4.8 0.00 0.00 0.00 66 1020.1
20230208010852 8 166 1.6 4.8 0.00 0.00 0.00 67 1020.2
20230208005821 7 157 0.0 3.2 0.00 0.00 0.00 68 1020.4
20230208002447 8 157 0.0 0.0 0.00 0.00 0.00 65 1021.0
20230208001509 8 157 0.0 0.0 0.00 0.00 0.00 65 1020.9
20230208000531 8 157 0.0 0.0 0.00 0.00 0.00 66 1020.9
20230207235520 8 157 0.0 0.0 0.00 0.00 0.00 65 1020.9
20230207234524 8 157 0.0 0.0 0.00 0.00 0.00 64 1020.9
20230207233529 9 157 0.0 0.0 0.00 0.00 0.00 63 1020.6
20230207231339 9 150 0.0 0.0 0.00 0.00 0.00 62 1020.9
20230207230320 9 148 0.0 4.8 0.00 0.00 0.00 62 1021.1
20230207225310 9 163 0.0 1.6 0.00 0.00 0.00 62 1020.9
20230207224249 9 162 0.0 4.8 0.00 0.00 0.00 61 1020.9
20230207223255 9 162 0.0 0.0 0.00 0.00 0.00 60 1021.5
20230207221147 9 162 1.6 6.4 0.00 0.00 0.00 60 1021.1
20230207220149 10 175 1.6 8.0 0.00 0.00 0.00 60 1021.4
20230207215206 10 175 1.6 8.0 0.00 0.00 0.00 59 1021.4
20230207214156 10 132 1.6 6.4 0.00 0.00 0.00 59 1021.2
20230207213142 10 173 3.2 9.7 0.00 0.00 0.00 59 1021.2
20230207212144 10 166 1.6 14.5 0.00 0.00 0.00 58 1021.3
20230207211112 10 201 4.8 14.5 0.00 0.00 0.00 57 1021.5
20230207210050 10 197 3.2 14.5 0.00 0.00 0.00 56 1021.5
20230207205021 10 158 3.2 11.3 0.00 0.00 0.00 57 1021.8
20230207204013 10 159 3.2 22.5 0.00 0.00 0.00 57 1021.6
20230207203006 10 179 6.4 22.5 0.00 0.00 0.00 56 1021.8
20230207201948 10 182 6.4 20.9 0.00 0.00 0.00 56 1022.0
20230207200942 10 195 6.4 20.9 0.00 0.00 0.00 56 1022.0
20230207195913 10 178 4.8 16.1 0.00 0.00 0.00 57 1022.0
20230207194914 10 196 6.4 22.5 0.00 0.00 0.00 57 1022.3
20230207192757 9 181 6.4 20.9 0.00 0.00 0.00 58 1022.5
20230207191810 9 190 6.4 17.7 0.00 0.00 0.00 59 1023.0
20230207190805 8 211 8.0 19.3 0.00 0.00 0.00 59 1023.1
20230207185747 8 190 6.4 19.3 0.00 0.00 0.00 59 1023.4
20230207184806 8 165 6.4 16.1 0.00 0.00 0.00 60 1023.3
20230207182711 8 198 6.4 16.1 0.00 0.00 0.00 61 1023.9
20230207181724 8 169 4.8 16.1 0.00 0.00 0.00 62 1024.1
20230207175524 8 236 4.8 12.9 0.00 0.00 0.00 61 1024.8
20230207174543 7 167 3.2 11.3 0.00 0.00 0.00 62 1024.9
20230207173514 7 150 4.8 11.3 0.00 0.00 0.00 64 1025.2
20230207172501 7 212 3.2 11.3 0.00 0.00 0.00 65 1025.2